Location: Aulus
(42.7909°N, 1.3399°E)
Time: 12:52:57
(UTC+00:00)

Cosmos 158 Rocket - Pass Details

Date: 19 May 2025
Orbit: 694 x 787 km, 74.0° (Epoch: 11 June)

Event Time Altitude Azimuth Distance (km) Brightness Sun altitude
Rises 20:28:59 0° 190° (S) 3,214 6.9 -11.9°
Reaches altitude 10° 20:31:20 10° 188° (S) 2,305 6.2 -12.2°
Maximum altitude 20:36:33 68° 106° (ESE) 843 4.0 -12.9°
Drops below altitude 10° 20:41:52 10° 25° (NNE) 2,354 6.8 -13.6°
Sets 20:44:17 0° 23° (NNE) 3,289 7.6 -13.9°
